#timestamp,LO_Frequency,Hit,StdDev 
1552125615.5,286046998.1,N
1552125635.3,286046998.1,N
1552125655.2,286046998.1,N
1552125675.9,286046998.1,N
1552125695.7,286046998.1,N
1552125715.6,286046998.6,N
1552125735.4,286046998.3,N
1552125755.2,286046999.3,N
1552125775.0,286046998.9,N
1552125776.0,286046998.9,N
1552125795.8,286046999.4,N
1552125815.6,286046999.4,N
1552125835.4,286046998.7,N
1552125855.3,286046998.9,N
1552125875.1,286046998.3,N
1552125895.8,286046998.9,N
1552125915.7,286046998.2,N
1552125935.5,286046998.9,N
1552125955.3,286046999.3,N
1552125975.2,286046998.5,N
1552125995.9,286046998.9,N
1552126015.7,286046998.4,N
1552126035.6,286046998.8,N
1552126055.4,286046998.5,N
1552126075.2,286046998.8,N
1552126095.0,286046998.2,N
1552126095.9,286046998.2,N
1552126115.8,286046998.8,N
1552126135.6,286046998.8,N
1552126155.4,286046998.9,N
1552126175.3,286046998.7,Y
1552126195.1,286047000.3,P
1552126215.8,286046999.9,N
1552126235.7,286047000.6,N
1552126255.5,286047002.8,Y
1552126275.3,286047002.8,P
1552126295.2,286047002.7,N
1552126315.0,286047002.6,N
1552126315.9,286047002.6,N
1552126335.7,286047001.9,N
1552126355.6,286047001.6,N
1552126375.4,286047001.9,N
1552126395.2,286047003.7,Y
1552126415.1,286047002.6,P
1552126416.0,286047002.6,P
1552126435.8,286047001.6,P
1552126455.6,286047004.3,Y
1552126475.5,286046999.9,P
1552126495.3,286047002.8,N
1552126515.1,286047001.6,N
1552126535.9,286047001.3,N
1552126555.7,286047004.3,Y
1552126575.5,286046999.7,P
1552126595.4,286047002.7,N
1552126615.2,286047002.0,N
1552126635.0,286047001.5,N
1552126635.9,286047001.5,N
1552126655.8,286047001.8,N
1552126675.6,286047001.5,N
1552126695.4,286047004.1,Y
1552126715.3,286047002.4,P
1552126735.1,286047002.6,P
1552126755.8,286047002.5,P
1552126775.7,286047002.1,Y
1552126795.5,286047000.7,P
1552126815.3,286046998.1,N
1552126835.2,286047000.6,N
1552126855.9,286047000.4,N
1552126875.7,286046999.9,N
1552126895.6,286047000.4,N
1552126915.4,286047000.2,N
1552126935.2,286047000.4,N
1552126955.1,286047000.3,N
1552126956.0,286047000.3,N
1552126975.8,286047002.7,N
1552126995.6,286047002.6,N
1552127015.4,286047002.1,N
1552127035.3,286047002.3,N
1552127055.1,286047001.6,N
1552127075.8,286047001.8,N
1552127095.7,286047001.3,N
1552127115.5,286047001.7,N
1552127135.3,286047004.4,Y
1552127155.2,286047001.7,P
1552127175.9,286047001.8,P
1552127195.7,286047004.4,P
1552127215.6,286047004.2,Y
1552127235.4,286047002.8,P
1552127255.2,286047002.7,P
1552127275.1,286047002.4,P
1552127276.0,286047002.4,Y
1552127295.8,286046998.7,P
1552127315.6,286046998.3,N
1552127335.5,286046998.6,N
1552127355.3,286046998.8,N
1552127375.1,286046998.8,N
1552127395.9,286046998.4,N
1552127415.7,286046998.3,N
1552127435.5,286046998.3,N
1552127455.4,286046998.3,N
1552127475.2,286046998.6,N
1552127495.0,286047000.7,N
1552127495.9,286047000.7,N
1552127515.8,286047001.2,N
1552127535.6,286047000.8,N
1552127555.4,286047001.1,N
1552127575.2,286047000.8,N
1552127595.1,286047001.0,N
1552127596.0,286047001.0,N
1552127615.8,286047000.9,N
1552127635.6,286046999.2,N
1552127655.5,286047002.8,N
1552127675.3,286047001.0,N
1552127695.1,286047000.7,N
1552127715.9,286047000.7,N
1552127735.7,286047000.7,N
1552127755.5,286047000.7,N
1552127775.4,286047000.8,N
1552127795.2,286047000.8,N
1552127815.0,286047001.1,N
1552127815.9,286047001.1,N
1552127835.8,286047001.1,N
1552127855.6,286047000.8,N
1552127875.4,286047000.7,N
1552127895.2,286046998.3,N
1552127915.1,286046998.6,N
1552127916.0,286046998.6,N
1552127935.8,286046998.5,N
1552127955.6,286047000.7,N
1552127975.5,286046998.6,N
1552127995.3,286046998.5,N
1552128015.1,286047000.7,N
1552128035.9,286047000.8,N
1552128055.7,286047000.8,N
1552128075.5,286046998.7,N
1552128095.4,286046998.1,N
1552128115.2,286046998.1,N
1552128135.0,286046998.5,N
1552128135.9,286046998.5,N
1552128155.8,286046998.9,N
1552128175.6,286046998.3,N
1552128195.4,286046998.4,N
1552128215.3,286046998.3,N
1552128235.1,286046998.6,N
1552128236.0,286046998.6,N
1552128255.8,286046998.9,N
1552128275.7,286046998.6,N
1552128295.5,286046998.6,N
1552128315.3,286046998.3,N
1552128335.1,286046998.3,N
1552128355.9,286046998.3,N
1552128375.7,286046999.4,N
1552128395.5,286046999.3,N
1552128415.4,286046998.6,N
1552128435.2,286046998.3,N
1552128455.0,286046998.6,N
1552128455.9,286046998.6,N
1552128475.8,286046998.5,N
1552128495.6,286046998.1,N
1552128515.4,286047001.2,N
1552128535.3,286046998.4,N
1552128555.1,286047001.2,N
1552128556.0,286047001.2,N
1552128575.8,286047001.1,N
1552128595.7,286047001.1,N
1552128615.5,286047000.7,N
1552128635.3,286046998.1,N
1552128655.2,286046998.1,N
1552128675.9,286047000.8,N
1552128695.7,286047000.7,N
1552128715.5,286047000.0,N
1552128735.4,286047000.6,N
1552128755.2,286046999.8,N
1552128775.0,286046999.7,N
1552128775.9,286046999.7,N
1552128795.8,286047002.8,N
1552128815.6,286047002.8,N
1552128835.4,286046999.8,N
1552128855.3,286047002.4,N
1552128875.1,286047002.4,N
1552128895.8,286047002.4,N
1552128915.7,286047002.8,N
1552128935.5,286046999.9,N
1552128955.3,286047002.4,N
1552128975.2,286047002.0,N
1552128995.9,286047001.9,N
1552129015.7,286047002.4,N
1552129035.6,286047002.4,N
1552129055.4,286047001.9,N
1552129075.2,286047001.6,N
1552129095.0,286047002.0,N
1552129095.9,286047002.0,N
1552129115.8,286047002.6,N
1552129135.6,286047001.6,N
1552129155.4,286047002.3,N
1552129175.3,286047001.6,N
1552129195.1,286046999.7,N
